Regional Weather Roundup
Issued by NWS

Home | Current Version | Previous Version | Text Only | Print | Product List | Glossary On
Versions: 1 2 3 4 5 6 7 8 9 10 11 12 13 14 15 16 17 18 19 20 21 22 23 24 25 26 27 28 29 30 31 32 33 34 35 36 37 38 39 40 41 42 43 44 45 46 47 48 49 50
000
ASUS43 KLSX 270810
RWRMO

WEATHER SUMMARY FOR MISSOURI
NATIONAL WEATHER SERVICE SPRINGFIELD MO
200 AM CST MON FEB 27 2017

NOTE: "FAIR" INDICATES FEW OR NO CLOUDS BELOW 12,000 FEET WITH NO
       SIGNIFICANT WEATHER AND/OR OBSTRUCTIONS TO VISIBILITY.
       CURRENT SKY AND/OR WEATHER CONDITIONS ARE NOT AVAILABLE FOR
       CHILLICOTHE AND FARMINGTON.

MOZ001>031-035>038-043-044-053-054-270900-
...NORTHERN AND WESTERN MISSOURI...

CITY           SKY/WX    TMP DP  RH WIND       PRES   REMARKS
KANSAS CTY INT CLEAR     34  33  96 CALM      30.03R
KANSAS C DTWN  CLEAR     35  34  96 CALM      30.03S
LEE`S SUMMIT   CLEAR     34  34 100 S7        30.03S WCI  28
ST JOSEPH      FOG       28  28 100 S5        30.04R VSB<1/4 WCI  23
CHILLICOTHE      N/A     28  26  92 CALM      30.06R
KIRKSVILLE     FOG       30  29  96 S3        30.06S VSB 1/4

$$
MOZ066>068-077>081-088>096-101>105-270900-
...SOUTHWEST MISSOURI...

CITY           SKY/WX    TMP DP  RH WIND       PRES   REMARKS
SPRINGFIELD    CLEAR     38  27  64 SE9       30.01S
JOPLIN         CLEAR     33  31  92 CALM      30.01R
BRANSON        CLOUDY    39  30  70 CALM      30.03S

$$
MOZ032>034-039>042-045>050-055>058-069>072-270900-
...CENTRAL MISSOURI...

CITY           SKY/WX    TMP DP  RH WIND       PRES   REMARKS
COLUMBIA       CLEAR     35  34  96 E7        30.05S WCI  29
JEFFERSON CITY CLEAR     33  32  96 SE5       30.07R WCI  29
ROLLA          PTCLDY    37  33  85 SE8       30.03S
SEDALIA        CLEAR     32  30  92 E3        30.05S FOG
WHITEMAN AFB   CLEAR     31  31 100 NE3       30.03S FOG
WARRENSBURG    FOG       32  32 100 E3        30.05S VSB 1/2
OSAGE BEACH    CLEAR     33  32  96 E3        30.05S

$$
MOZ051-052-059>065-270900-
...EAST CENTRAL MISSOURI...

CITY           SKY/WX    TMP DP  RH WIND       PRES   REMARKS
ST LOUIS INTL  CLOUDY    42  35  76 E5        30.10S
SPIRIT OF STL  PTCLDY    36  34  92 CALM      30.09S
ST CHARLES     CLOUDY    40  37  89 E7        30.10S

$$
MOZ072>076-082>087-097>100-106>115-270900-
...SOUTH CENTRAL AND SOUTHEAST MISSOURI...

CITY           SKY/WX    TMP DP  RH WIND       PRES   REMARKS
CAPE GIRARDEAU LGT RAIN  44  40  85 E5        30.12F
FARMINGTON     CLOUDY    43  32  65 S5        30.09S
POPLAR BLUFF   CLOUDY    47  42  83 SE5       30.08F
WEST PLAINS    CLOUDY    43  26  51 E3        30.05S

$$




USA.gov is the U.S. government's official web portal to all federal, state and local government web resources and services.